Terminal Aerodrome Forecast
Issued by NWS

Home | Current Version | Previous Version | Text Only | Print | Product List | Glossary On
Versions: 1 2 3 4 5 6 7 8 9 10 11 12 13 14 15 16 17 18 19 20 21 22 23 24 25 26 27 28 29 30 31 32 33 34 35 36 37 38 39 40 41 42 43 44 45 46 47 48 49 50
000
FTUS44 KLIX 261100 RRA
TAFASD
TAF
KASD 261140Z 2612/2712 VRB03KT P6SM FEW030 BKN200
     FM261700 08005KT P6SM SCT027 BKN035
      TEMPO 2623/2703 BKN027
     FM270300 10011KT P6SM VCSH OVC025
     FM270400 10011KT 4SM SHRA OVC015=

USA.gov is the U.S. government's official web portal to all federal, state and local government web resources and services.